Location: Maiden
(35.5760°N, 81.2120°W)
Time: 03:28:36
(UTC-04:00)

Sakura Rocket - Pass Details

Date: 02 August 2020
Orbit: 476 x 1743 km, 28.7° (Epoch: 11 August)

Event Time Altitude Azimuth Distance (km) Brightness Sun altitude
Rises 21:13:25 0° 258° (WSW) 3,589 7.8 -9.3°
Reaches altitude 10° 21:16:33 10° 251° (WSW) 2,422 6.7 -9.8°
Maximum altitude 21:21:37 37° 185° (S) 1,038 4.0 -10.7°
Enters shadow 21:24:37 16° 125° (SE) 1,553 4.4 -11.2°
